This is the latest recevied weather packets stored in our database for station/object W0RMT-13. If no packets are shown the sender has not sent any weather packets the latest 10 day(s).
| Time | Temp. | Humidity | Pressure | Rain* | Wind** | Luminosity | Snow |
|---|---|---|---|---|---|---|---|
| 1778179471 | 16.11° C | 37% | 1015 hPa | 0 mm | - | 743 W/m² | - |
| 1778178836 | 15.56° C | 42% | 1015 hPa | 0 mm | - | 373 W/m² | - |
| 1778178214 | 15° C | 41% | 1015 hPa | 0 mm | - | 239 W/m² | - |
| 1778177570 | 15° C | 44% | 1014.7 hPa | 0 mm | - | 222 W/m² | - |
| 1778176879 | 14.44° C | 43% | 1015 hPa | 0 mm | - | 184 W/m² | - |
| 1778176252 | 14.44° C | 41% | 1015 hPa | 0 mm | - | 195 W/m² | - |
| 1778175560 | 14.44° C | 43% | 1015 hPa | 0 mm | - | 174 W/m² | - |
| 1778174935 | 14.44° C | 41% | 1015 hPa | 0 mm | - | 158 W/m² | - |
| 1778174254 | 14.44° C | 46% | 1015.4 hPa | 0 mm | - | 147 W/m² | - |
| 1778173627 | 13.89° C | 47% | 1015.4 hPa | 0 mm | - | 175 W/m² | - |
| 1778172964 | 13.89° C | 48% | 1015.4 hPa | 0 mm | - | 157 W/m² | - |
| 1778172316 | 13.89° C | 46% | 1015 hPa | 0 mm | - | 132 W/m² | - |
| 1778171668 | 13.89° C | 46% | 1015 hPa | 0 mm | - | 120 W/m² | - |
| 1778171012 | 14.44° C | 41% | 1015 hPa | 0 mm | - | 125 W/m² | - |
| 1778170354 | 15° C | 47% | 1015.4 hPa | 0 mm | - | 160 W/m² | - |
| 1778169714 | 15.56° C | 46% | 1015.4 hPa | 0 mm | - | 192 W/m² | - |
| 1778169076 | 15.56° C | 40% | 1015.4 hPa | 0 mm | - | 218 W/m² | - |
| 1778168323 | 15.56° C | 43% | 1015.4 hPa | 0 mm | - | 367 W/m² | - |
| 1778167676 | 15.56° C | 40% | 1015.4 hPa | 0 mm | - | 299 W/m² | - |
| 1778166959 | 14.44° C | 40% | 1015.4 hPa | 0 mm | - | 430 W/m² | - |
| 1778166268 | 14.44° C | 40% | 1015.4 hPa | 0 mm | - | 312 W/m² | - |
| 1778165646 | 14.44° C | 41% | 1015.4 hPa | 0 mm | - | 288 W/m² | - |
| 1778164991 | 13.89° C | 40% | 1015.4 hPa | 0 mm | - | 244 W/m² | - |
| 1778164313 | 13.33° C | 40% | 1015.4 hPa | 0 mm | - | 394 W/m² | - |
| 1778163676 | 12.78° C | 46% | 1015 hPa | 0 mm | - | 278 W/m² | - |
* Rain latest hour (hover to see other rain measurements)
** Current wind speed in m/s (hover to see current wind gust speed)